Date,TemperatureHighF,TemperatureAvgF,TemperatureLowF,DewpointHighF,DewpointAvgF,DewpointLowF,HumidityHigh,HumidityAvg,HumidityLow,PressureMaxIn,PressureMinIn,WindSpeedMaxMPH,WindSpeedAvgMPH,GustSpeedMaxMPH,PrecipitationSumIn
2014-1-1,15.0,13.7,11.4,12.0,10.1,8.0,87,85,83,29.34,29.21,8,3,13,0.00
2014-1-2,13.7,10.3,-2.6,10.0,5.2,-7.0,86,80,67,29.38,29.12,10,4,18,0.00
2014-1-3,14.3,5.5,-7.7,8.0,-0.5,-12.0,83,76,67,29.47,29.08,15,3,23,0.00
2014-1-4,30.2,24.1,14.4,27.0,17.8,8.0,92,77,67,29.07,28.93,20,8,26,0.00
2014-1-5,28.8,24.7,17.8,27.0,22.6,15.0,93,91,89,29.04,28.82,17,4,26,0.00
2014-1-6,17.3,-3.6,-13.9,15.0,-7.7,-19.0,89,82,79,29.20,28.86,25,14,31,0.00
2014-1-7,-0.6,-7.5,-13.2,-5.0,-12.1,-18.0,83,80,79,29.35,29.18,16,6,19,0.00
2014-1-8,15.8,2.9,-9.2,12.0,-0.8,-14.0,87,84,79,29.53,29.32,4,0,7,0.02
2014-1-9,23.1,8.6,-5.2,21.0,5.3,-10.0,91,86,80,29.55,29.26,9,2,13,0.00
2014-1-10,40.3,32.7,23.4,39.0,31.1,21.0,94,93,91,29.25,28.65,15,5,23,0.72
2014-1-11,39.9,35.3,32.3,38.0,33.2,28.0,95,91,84,28.78,28.46,20,9,27,0.11
2014-1-12,32.2,30.9,29.6,29.0,26.9,25.0,88,85,83,28.91,28.79,14,10,20,0.00
2014-3-19,43.6,38.4,33.9,43.0,36.9,31.0,96,94,88,29.79,29.49,15,7,25,0.42
2014-3-20,39.0,34.0,27.4,30.0,26.7,24.0,87,75,62,29.94,29.80,13,5,20,0.00
2014-3-21,45.4,35.5,25.5,42.0,31.6,23.0,96,86,76,29.94,29.59,11,4,18,0.11
2014-3-22,44.3,34.7,26.8,42.0,30.2,20.0,95,83,74,30.14,29.61,14,5,20,0.03
2014-3-23,26.7,22.6,15.6,20.0,13.2,9.0,80,68,59,30.29,30.14,13,4,18,0.00
2014-3-24,29.4,21.5,13.5,20.0,12.4,8.0,91,70,43,30.26,29.99,13,3,19,0.00
2014-3-25,27.2,22.9,17.9,22.0,16.2,10.0,91,76,59,30.10,29.85,17,5,21,0.00
2014-3-26,34.1,24.4,14.7,20.0,16.4,13.0,92,73,52,30.25,30.00,10,3,14,0.00
2014-3-27,46.5,37.2,32.6,41.0,29.7,18.0,91,76,53,29.99,29.46,15,6,22,0.14
2014-3-28,50.9,38.6,29.6,47.0,35.4,27.0,95,88,78,30.05,29.39,21,8,32,0.03
2014-3-29,38.5,33.4,29.5,33.0,30.1,27.0,95,88,71,30.08,29.99,11,3,14,0.04
2014-3-30,53.3,37.4,22.1,32.0,26.1,21.0,95,68,40,30.14,29.99,7,2,9,0.00
2014-3-31,63.5,49.9,34.8,38.0,34.4,30.0,83,58,32,30.01,29.73,15,6,26,0.00
2014-4-1,56.3,46.5,40.2,45.0,35.1,30.0,86,65,48,29.93,29.59,18,8,30,0.06
2014-4-2,53.1,43.6,31.5,32.0,30.0,26.0,85,61,38,30.05,29.91,8,2,12,0.00
2014-4-3,47.5,38.5,32.5,38.0,33.7,30.0,96,84,52,29.97,29.61,19,8,24,1.44
2014-4-4,44.8,37.9,34.3,45.0,36.4,30.0,99,94,82,29.74,29.35,18,8,28,0.04
2014-4-5,44.6,36.5,29.2,31.0,25.2,19.0,85,66,39,30.08,29.75,14,5,27,0.00
2014-4-6,52.7,40.6,26.1,31.0,25.6,21.0,85,59,34,30.09,29.88,9,2,15,0.00
2014-4-7,51.7,41.6,34.8,40.0,32.7,29.0,94,72,43,29.87,29.44,8,2,13,0.18
2014-4-8,54.6,43.0,35.3,41.0,35.9,32.0,95,77,56,29.75,29.45,12,4,18,0.00
2014-4-9,58.1,45.1,29.8,35.0,32.1,28.0,95,64,40,29.91,29.75,13,3,21,0.00
2014-4-10,65.0,53.1,44.7,48.0,40.9,35.0,82,64,46,29.80,29.55,15,6,28,0.00
2014-4-11,66.4,51.5,36.1,40.0,30.3,23.0,95,53,21,29.91,29.76,11,2,15,0.00
2014-4-12,73.9,61.1,47.9,55.0,42.6,28.0,61,51,35,29.92,29.61,18,5,25,0.00
2014-4-13,71.5,65.3,60.1,60.0,56.4,53.0,91,73,63,29.63,29.42,16,6,26,0.11
2014-4-14,65.4,43.6,27.7,59.0,40.4,26.0,94,88,79,29.77,29.24,23,8,26,0.10
2014-4-15,32.2,27.6,23.8,26.0,17.9,12.0,94,69,44,30.14,29.76,20,6,25,0.00
2014-4-16,46.0,35.0,23.3,29.0,21.1,16.0,80,59,40,30.30,30.13,15,6,22,0.00
2014-4-17,64.5,48.7,34.5,40.0,33.2,27.0,74,57,38,30.15,30.07,13,6,22,0.00
2014-4-18,60.7,49.6,36.1,46.0,39.9,26.0,96,71,48,30.20,30.09,11,3,16,0.03
2014-4-19,60.9,47.3,35.5,39.0,33.5,27.0,86,61,37,30.29,30.15,12,5,17,0.00
2014-4-20,71.7,55.3,38.6,38.0,33.0,29.0,74,47,22,30.19,29.94,15,4,16,0.00
2014-4-21,76.3,61.1,48.5,57.0,45.0,35.0,96,59,34,29.93,29.64,16,4,32,0.30
2014-4-22,57.6,47.0,39.7,57.0,39.2,29.0,98,76,56,29.88,29.58,20,7,31,0.09
2014-4-23,55.9,43.4,31.6,35.0,31.0,27.0,84,63,39,30.02,29.89,10,4,13,0.00
2014-4-24,56.9,50.8,45.5,37.0,31.1,26.0,68,49,31,29.98,29.63,25,8,28,0.00
2014-4-25,61.3,49.6,42.0,44.0,40.6,30.0,96,73,48,29.70,29.52,15,5,23,0.41
2014-4-26,54.4,48.8,43.0,43.0,37.2,31.0,87,65,42,29.89,29.67,15,4,17,0.00
2014-4-27,57.7,47.6,39.3,37.0,33.5,28.0,81,60,41,29.99,29.80,23,10,27,0.00
2014-4-28,55.0,48.5,44.9,45.0,38.8,32.0,90,70,57,29.83,29.53,24,12,30,0.06
2014-4-29,72.5,57.8,47.4,58.0,47.6,39.0,99,74,30,29.56,29.35,23,6,32,0.17
2014-4-30,58.6,52.3,43.2,49.0,46.0,37.0,95,80,61,29.69,29.56,9,4,17,0.01
2014-5-1,47.9,44.2,40.8,43.0,40.5,36.0,95,87,79,29.69,29.60,14,6,23,0.20
2014-5-2,50.6,46.2,43.7,46.0,43.7,42.0,96,91,75,29.70,29.64,16,5,20,0.07
2014-5-3,61.3,51.3,45.7,47.0,42.4,38.0,94,74,44,29.72,29.52,23,6,26,0.05
2014-5-4,52.5,48.6,43.1,43.0,34.6,27.0,85,60,40,29.96,29.71,17,4,23,0.00
2014-5-5,58.4,49.7,41.8,41.0,36.4,32.0,73,61,41,29.95,29.80,11,4,17,0.00
2014-5-6,65.4,53.2,40.4,45.0,39.1,35.0,82,61,43,29.93,29.82,17,6,21,0.00
2014-5-7,71.3,59.3,49.8,56.0,46.9,38.0,75,64,56,29.85,29.70,17,8,22,0.00
2014-5-8,87.5,70.4,52.1,66.0,57.3,47.0,86,65,44,29.79,29.68,10,6,21,0.00
2014-5-9,75.3,68.1,57.0,64.0,59.3,48.0,94,75,48,29.71,29.53,14,6,26,0.21
2014-5-10,70.1,59.1,45.8,49.0,44.2,39.0,93,62,32,29.86,29.70,14,3,19,0.00
2014-5-11,82.3,66.6,48.3,61.0,51.7,43.0,93,61,40,29.89,29.75,11,3,19,0.26
2014-5-12,81.7,71.4,60.6,71.0,65.8,59.0,97,83,67,29.82,29.73,14,5,23,0.02
2014-5-13,74.9,65.6,52.9,69.0,62.2,50.0,96,89,73,29.96,29.71,13,5,20,0.09
2014-5-14,55.1,51.2,48.7,50.0,48.1,46.0,97,89,73,30.02,29.75,7,2,13,0.81
2014-5-15,49.3,43.8,36.1,48.0,41.3,35.0,97,91,71,29.93,29.61,13,5,21,0.16
2014-5-16,45.6,39.1,32.2,40.0,36.3,31.0,98,90,81,29.95,29.89,5,2,11,0.01
2014-5-17,55.9,45.0,33.7,41.0,34.8,28.0,96,71,34,30.07,29.93,11,3,18,0.02
2014-5-18,65.9,53.9,38.0,40.0,37.2,34.0,90,57,35,30.14,30.07,10,3,17,0.00
2014-5-19,68.3,57.7,42.5,51.0,41.4,38.0,86,57,37,30.14,29.92,11,3,21,0.01
2014-5-20,81.4,68.6,57.2,65.0,56.7,46.0,78,66,55,29.96,29.69,12,5,16,0.01
2014-5-21,82.5,72.0,62.4,69.0,61.3,51.0,97,72,35,29.74,29.66,11,3,16,0.08
2014-5-22,67.8,61.5,52.1,57.0,49.9,46.0,90,67,49,29.96,29.72,12,4,21,0.00
2014-5-23,65.7,55.9,45.6,49.0,46.5,44.0,95,73,51,30.05,29.96,10,3,15,0.00
2014-5-24,75.9,60.6,43.4,54.0,48.7,42.0,97,69,39,30.10,29.99,9,2,12,0.00
2014-5-25,81.5,67.8,51.9,55.0,51.5,49.0,90,60,33,30.02,29.90,9,2,13,0.00
2014-5-26,85.6,70.8,55.0,66.0,58.9,52.0,95,68,48,29.93,29.77,12,2,19,0.18
2014-5-27,78.7,69.0,65.0,71.0,66.8,64.0,98,93,75,29.84,29.75,4,1,10,0.06
2014-5-28,75.7,70.3,62.2,69.0,65.7,61.0,99,85,76,29.89,29.81,0,0,0,0.01
2014-5-29,78.9,69.1,58.2,61.0,57.4,53.0,94,69,41,29.98,29.89,0,0,0,0.00
2014-5-30,81.0,68.7,55.9,60.0,56.6,54.0,92,68,41,30.06,29.96,0,0,0,0.00
2014-5-31,84.2,72.3,57.0,60.0,56.5,53.0,89,61,39,30.06,29.93,0,0,0,0.00
2014-6-1,85.1,73.8,59.8,65.0,55.3,48.0,70,54,37,29.99,29.77,0,0,0,0.00
2014-6-2,79.1,73.2,65.9,71.0,67.8,63.0,97,84,65,29.82,29.66,12,2,28,1.00
2014-6-3,73.4,69.5,58.6,69.0,59.4,50.0,95,72,45,29.80,29.68,15,5,26,0.01
2014-6-4,62.8,59.7,56.3,59.0,56.2,53.0,96,88,77,29.77,29.67,10,2,14,0.51
2014-6-5,74.1,62.3,50.2,55.0,50.6,45.0,97,69,39,29.85,29.73,8,2,10,0.00
2014-6-6,78.9,65.2,50.7,56.0,50.4,45.0,94,64,30,29.87,29.80,7,1,10,0.00
2014-6-7,80.2,69.0,54.3,62.0,54.8,50.0,89,63,40,29.89,29.69,8,2,13,0.00
2014-6-8,75.3,66.5,59.4,63.0,60.1,56.0,97,80,59,29.84,29.63,11,3,13,0.75
2014-6-9,78.0,67.4,57.2,62.0,58.3,55.0,94,74,52,29.87,29.76,8,2,11,0.00
2014-6-10,74.4,66.2,59.6,63.0,60.5,58.0,96,82,61,29.78,29.65,11,3,16,0.26
2014-6-11,73.7,67.1,64.0,69.0,65.3,63.0,98,94,78,29.65,29.53,10,3,14,1.38
2014-6-12,77.7,66.0,59.1,68.0,62.4,59.0,99,89,68,29.67,29.56,9,3,17,0.03
2014-6-13,65.8,60.0,49.7,60.0,50.0,43.0,91,71,48,29.90,29.66,15,3,20,0.00
2014-6-14,75.2,61.6,44.9,53.0,48.3,44.0,98,66,36,30.01,29.88,6,1,9,0.00
2014-6-15,80.3,69.6,56.2,66.0,56.6,48.0,78,64,50,29.93,29.74,11,4,21,0.00
2014-6-16,86.9,77.0,68.0,71.0,66.1,63.0,91,70,49,29.91,29.80,7,2,12,0.00
2014-6-17,86.6,78.7,73.3,74.0,70.7,69.0,88,77,64,29.81,29.66,17,4,23,0.00
2014-6-18,79.0,72.0,67.0,74.0,69.3,66.0,98,91,78,29.84,29.70,9,2,17,0.57
2014-6-19,76.0,70.4,65.7,70.0,67.1,65.0,99,89,76,29.97,29.83,11,3,15,0.00
2014-6-20,77.3,68.5,62.8,72.0,65.1,61.0,96,89,79,29.93,29.75,7,3,15,0.18
2014-6-21,78.5,67.7,59.7,70.0,64.1,59.0,99,89,70,29.85,29.71,7,2,15,0.34
2014-6-22,82.3,72.8,64.3,71.0,68.0,64.0,99,86,64,29.78,29.69,6,1,9,0.00
2014-6-23,78.0,69.5,65.3,74.0,67.4,63.0,99,93,83,29.76,29.66,7,2,24,1.62
2014-6-24,77.9,71.0,67.6,73.0,69.3,67.0,100,95,80,29.74,29.70,6,1,9,0.73
2014-6-25,79.5,71.0,63.0,72.0,68.1,63.0,100,91,75,29.86,29.73,6,2,13,0.00
2014-6-26,80.5,69.9,63.0,69.0,65.2,63.0,100,86,56,29.92,29.84,5,1,7,0.00
2014-6-27,83.3,73.0,63.0,71.0,67.0,63.0,99,82,61,29.94,29.86,8,2,10,0.00
2014-6-28,81.0,73.0,68.1,74.0,68.7,66.0,93,86,75,29.94,29.88,9,2,13,0.00
2014-6-30,82.8,75.2,66.2,75.0,66.1,-99.9,96,82,73,29.72,29.49,7,-13,23,0.17
2014-7-1,81.0,71.1,62.2,69.0,65.5,62.0,99,84,61,29.63,29.40,20,4,40,1.63
2014-7-2,72.1,66.2,57.5,65.0,59.9,52.0,94,80,65,29.83,29.61,9,4,14,0.00
2014-7-3,69.6,60.9,51.0,55.0,51.7,47.0,97,74,46,30.04,29.83,9,3,13,0.05
2014-7-4,76.3,64.2,51.7,57.0,52.9,49.0,96,70,43,30.16,30.04,7,1,10,0.00
2014-7-5,75.1,64.6,51.4,64.0,56.6,50.0,96,77,52,30.16,29.93,7,1,10,0.00
2014-7-6,78.3,70.3,61.1,72.0,65.5,58.0,95,85,74,29.93,29.61,8,3,14,0.06
2014-7-7,82.3,74.9,65.7,74.0,70.0,64.0,98,85,61,29.61,29.53,9,3,20,0.14
2014-7-8,77.2,71.1,63.8,71.0,66.1,60.0,98,85,65,29.64,29.42,12,3,19,0.17
2014-7-9,73.9,66.2,56.9,64.0,59.4,56.0,98,80,60,29.89,29.64,9,2,13,0.00
2014-7-10,75.6,64.3,52.0,63.0,56.3,51.0,99,77,52,30.04,29.90,5,1,8,0.00
2014-7-11,78.8,66.6,53.2,67.0,59.7,52.0,99,81,53,30.09,29.97,7,1,9,0.01
2014-7-12,79.4,70.8,61.3,71.0,67.0,59.0,96,88,71,30.01,29.73,8,2,12,0.01
2014-7-13,80.3,73.0,67.3,73.0,67.6,63.0,99,84,58,29.77,29.65,8,2,15,0.40
2014-7-14,76.2,68.5,61.7,67.0,63.4,59.0,98,85,59,29.72,29.62,4,0,7,0.10
2014-7-15,66.5,60.1,53.2,61.0,55.2,52.0,98,84,67,29.80,29.63,8,2,16,0.10
2014-7-16,67.6,58.0,49.1,57.0,53.5,48.0,99,86,66,29.90,29.80,6,1,10,0.00
2014-7-17,75.4,62.0,46.1,62.0,52.9,46.0,99,76,43,30.00,29.90,4,1,8,0.00
2014-7-18,75.1,63.7,49.9,60.0,54.7,49.0,97,75,51,30.08,29.98,5,1,12,0.00
2014-7-19,80.5,67.1,52.6,68.0,59.4,52.0,99,78,55,29.97,29.86,4,0,7,0.00
2014-7-20,81.7,70.0,57.0,71.0,62.9,56.0,98,80,57,29.93,29.86,3,0,5,0.00
2014-7-21,84.1,72.2,58.7,73.0,65.0,58.0,99,80,57,29.98,29.89,5,1,9,0.00
2014-7-22,85.9,74.8,61.2,73.0,68.1,61.0,99,81,64,29.94,29.79,6,2,13,0.00
2014-7-23,76.0,67.3,59.1,71.0,62.8,57.0,99,86,64,29.94,29.78,7,2,15,0.08
2014-7-24,76.0,64.0,54.4,60.0,55.8,52.0,96,77,49,30.01,29.91,8,1,9,0.08
2014-7-25,74.4,62.1,49.6,63.0,56.9,49.0,99,84,60,29.96,29.80,5,1,9,0.00
2014-7-26,77.1,68.1,57.5,71.0,64.4,56.0,97,88,76,29.82,29.64,5,1,7,0.00
2014-7-27,83.7,72.3,62.2,75.0,67.4,59.0,100,86,59,29.67,29.48,8,2,17,0.00
2014-7-28,65.9,60.3,48.9,60.0,55.6,47.0,94,85,70,29.90,29.63,7,2,12,0.00
2014-7-29,74.6,59.6,45.3,64.0,54.1,45.0,99,84,60,29.90,29.84,5,1,10,0.00
2014-7-30,76.6,65.0,54.6,64.0,58.9,54.0,99,82,57,29.88,29.83,7,1,11,0.00
2014-7-31,80.8,66.0,49.8,66.0,58.6,49.0,100,80,53,29.90,29.86,7,1,11,0.00
2014-8-1,81.3,67.7,57.2,67.0,62.0,56.0,99,83,56,29.96,29.89,7,0,10,0.00
2014-8-2,82.5,68.7,54.7,67.0,60.7,54.0,100,78,48,30.00,29.93,2,0,7,0.00
2014-8-3,85.1,69.2,51.9,69.0,60.8,51.0,100,78,47,30.01,29.91,6,1,10,0.00
2014-8-4,85.2,70.9,58.9,70.0,63.9,58.0,100,81,51,29.96,29.89,7,1,11,0.00
2014-8-5,76.4,68.3,63.9,70.0,66.1,62.0,99,92,79,29.91,29.85,3,0,7,0.13
2014-8-6,79.6,68.1,58.6,69.0,62.1,57.0,100,83,50,29.93,29.85,7,1,8,0.15
2014-8-7,78.9,66.9,53.5,66.0,59.1,53.0,99,78,50,29.98,29.89,7,1,9,0.01
2014-8-8,80.4,68.2,55.5,64.0,59.7,55.0,99,77,48,29.98,29.90,8,2,14,0.01
2014-8-9,79.1,68.6,58.9,64.0,60.4,57.0,96,77,54,29.97,29.89,12,2,12,0.00
2014-8-10,83.8,71.8,57.8,70.0,64.3,56.0,93,78,62,29.93,29.79,8,2,11,0.00
2014-8-11,80.3,71.0,65.0,72.0,66.9,64.0,98,87,68,29.81,29.60,4,1,10,0.09
2014-8-12,66.3,62.1,56.1,66.0,61.0,55.0,99,96,89,29.79,29.55,8,2,13,0.02
2014-8-13,77.9,64.1,49.9,65.0,57.3,49.0,100,81,54,29.88,29.80,6,1,10,0.01
2014-8-14,71.5,59.3,45.6,54.0,50.1,44.0,98,74,45,29.94,29.87,6,1,12,0.01
2014-8-15,75.8,59.1,43.4,56.0,49.8,43.0,99,75,43,29.96,29.84,5,1,10,0.00
2014-8-16,82.8,65.6,48.1,70.0,59.9,47.0,98,83,63,29.85,29.75,6,1,11,0.00
2014-8-17,80.9,71.8,64.4,72.0,67.8,64.0,99,87,69,29.81,29.75,5,1,9,0.00
2014-8-18,83.0,71.8,63.6,71.0,65.8,60.0,96,82,63,29.79,29.65,4,1,9,0.00
2014-8-19,82.5,70.6,64.3,73.0,67.8,64.0,98,91,68,29.66,29.56,7,1,16,0.02
2014-8-20,84.0,73.2,63.4,71.0,67.5,63.0,100,84,61,29.80,29.60,7,1,11,0.01
2014-8-21,78.6,72.1,65.7,73.0,69.8,65.0,99,92,80,29.85,29.77,6,1,9,0.02
2014-8-22,87.0,75.0,66.6,76.0,71.8,66.0,100,90,69,29.83,29.75,4,1,6,0.01
2014-8-23,83.9,75.6,70.4,74.0,71.6,67.0,99,88,70,29.86,29.78,8,2,11,0.00
2014-8-24,83.1,73.6,66.3,74.0,68.9,65.0,96,85,73,29.90,29.84,7,2,10,0.00
2014-8-25,90.7,75.3,67.1,77.0,70.9,66.0,98,87,61,29.91,29.82,4,1,8,0.01
2014-8-26,77.5,69.7,65.6,74.0,68.6,65.0,100,96,85,29.99,29.87,5,0,11,0.11
2014-8-27,79.7,68.5,61.4,67.0,63.1,60.0,99,84,56,29.99,29.94,4,1,8,0.06
2014-8-28,76.8,65.9,55.7,65.0,60.0,53.0,93,82,64,30.00,29.91,5,1,9,0.01
2014-8-29,79.6,68.8,62.7,74.0,65.2,59.0,94,88,79,29.94,29.79,7,2,11,0.01
2014-8-30,81.4,72.8,67.4,74.0,69.6,67.0,99,90,74,29.82,29.69,11,2,16,0.00
2014-8-31,82.7,72.4,65.7,73.0,69.7,65.0,100,92,70,29.81,29.73,6,1,10,0.04
2014-9-1,81.1,73.3,68.1,75.0,70.5,68.0,99,91,74,29.76,29.60,10,2,16,0.08
2014-9-2,79.6,70.9,60.0,70.0,65.7,59.0,96,84,56,29.81,29.68,5,1,11,0.04
2014-9-3,82.7,69.4,57.5,69.0,62.7,57.0,100,82,54,29.89,29.81,4,0,10,0.47
2014-9-4,82.8,72.4,65.1,73.0,67.1,61.0,92,83,71,29.93,29.80,7,2,17,0.47
2014-9-5,90.7,75.7,64.2,79.0,71.1,64.0,99,86,60,29.86,29.73,6,2,21,0.74
2014-9-6,71.9,64.5,52.8,64.0,59.5,52.0,99,85,60,30.02,29.85,7,1,9,0.75
2014-9-7,76.1,62.2,50.0,61.0,55.2,50.0,99,80,48,30.08,29.99,4,0,7,0.00
2014-9-8,75.3,62.6,50.9,61.0,56.3,50.0,99,82,56,30.03,29.88,7,1,10,0.00
2014-9-9,75.7,64.8,55.8,64.0,60.0,55.0,98,85,64,29.91,29.78,8,1,13,0.00
2014-9-10,75.5,68.1,59.2,73.0,65.9,58.0,99,93,86,29.79,29.43,12,3,14,0.33
2014-9-11,58.7,53.6,51.3,58.0,52.3,49.0,98,95,89,30.09,29.61,5,2,17,0.01
2014-9-12,55.0,51.6,49.0,50.0,49.0,47.0,96,90,80,30.18,30.05,6,1,8,0.01
2014-9-13,60.2,52.0,44.0,50.0,47.7,43.0,98,86,64,30.20,30.04,9,1,11,0.01
2014-9-14,64.5,52.5,41.5,51.0,46.3,41.0,99,82,53,30.21,30.06,8,1,13,0.01
2014-9-15,60.1,51.8,43.7,54.0,49.4,43.0,99,92,78,30.07,29.94,7,1,8,0.01
2014-9-16,66.4,54.5,43.5,53.0,48.8,43.0,99,83,57,30.06,29.96,5,1,9,0.01
2014-9-17,68.5,52.6,39.2,52.0,46.0,39.0,99,81,53,29.96,29.85,5,1,8,0.00
2014-9-18,70.0,54.9,41.3,55.0,48.8,41.0,99,82,55,30.04,29.90,5,0,8,0.00
2014-9-19,68.9,58.0,48.9,57.0,52.0,48.0,98,82,57,30.09,29.88,9,2,14,0.01
2014-9-20,78.6,64.2,54.3,68.0,59.3,50.0,99,84,69,29.87,29.63,9,2,14,0.47
2014-9-21,66.0,58.5,47.4,66.0,55.6,44.0,99,90,79,29.95,29.51,10,3,18,0.12
2014-9-22,63.8,51.3,39.4,50.0,44.5,38.0,97,79,57,30.15,29.95,7,1,11,0.12
2014-9-23,74.0,55.8,40.9,57.0,48.8,40.0,99,81,49,30.23,30.15,5,0,8,0.00
2014-9-24,72.7,58.1,45.7,59.0,51.1,45.0,99,80,50,30.27,30.15,6,1,11,0.00
2014-9-25,76.2,61.3,49.5,61.0,54.2,49.0,98,80,43,30.18,30.08,4,0,7,0.00
2014-9-26,79.7,61.7,49.1,60.0,54.3,48.0,99,80,45,30.15,30.07,5,1,8,0.00
2014-9-27,76.1,61.2,47.8,62.0,55.7,47.0,99,84,57,30.14,30.02,6,1,8,0.01
2014-9-28,78.1,62.6,51.9,63.0,55.9,51.0,99,82,51,30.05,29.92,4,0,6,0.00
2014-9-29,79.9,63.1,48.5,63.0,56.7,48.0,100,82,54,29.91,29.77,3,0,8,0.00
2014-9-30,57.9,51.6,46.1,57.0,49.0,45.0,97,91,82,29.90,29.79,3,1,9,0.00
2014-10-1,64.8,56.5,51.4,54.0,51.1,49.0,94,82,66,29.93,29.82,7,2,12,0.00
2014-10-2,71.9,62.3,55.1,66.0,58.1,51.0,98,86,77,29.85,29.58,5,2,10,0.97
2014-10-3,65.4,57.7,44.3,65.0,56.3,43.0,99,95,75,29.58,29.27,9,2,15,0.12
2014-10-4,45.4,41.2,38.9,43.0,38.2,34.0,98,89,67,29.63,29.52,10,3,18,0.28
2014-10-5,57.3,46.1,36.8,43.0,38.6,35.0,97,77,44,29.63,29.53,7,2,15,0.30
2014-10-6,60.4,49.8,40.4,54.0,44.6,39.0,96,83,55,29.57,29.42,6,1,13,0.50
2014-10-7,62.9,51.2,40.2,55.0,46.7,39.0,97,85,72,29.66,29.52,8,2,14,0.50
2014-10-8,61.7,51.6,42.0,50.0,41.3,35.0,99,72,40,29.86,29.67,12,2,22,0.01
2014-10-9,59.8,48.1,37.0,47.0,39.6,34.0,98,76,41,30.01,29.85,8,1,10,0.00
2014-10-10,57.1,45.7,34.6,42.0,38.6,34.0,98,79,53,30.06,29.99,7,1,9,0.00
2014-10-11,57.5,45.4,35.2,42.0,36.6,33.0,95,74,44,30.13,30.02,5,1,11,0.00
2014-10-12,61.4,47.9,32.8,45.0,37.2,32.0,96,70,42,30.07,29.82,10,3,17,0.00
2014-10-13,71.6,61.8,50.0,67.0,58.8,45.0,100,90,71,29.81,29.51,10,2,18,0.01
2014-10-14,70.2,62.5,56.1,64.0,60.1,54.0,97,92,79,29.51,29.37,10,3,18,0.15
2014-10-15,58.9,54.3,51.6,55.0,53.1,51.0,99,95,85,29.65,29.51,4,1,8,0.19
2014-10-16,60.0,53.7,46.4,57.0,51.8,46.0,100,93,81,29.68,29.58,5,1,9,0.20
2014-10-17,62.9,54.8,47.9,54.0,51.0,46.0,96,87,69,29.64,29.42,7,3,15,0.04
2014-10-18,47.8,45.1,38.0,46.0,42.3,35.0,95,90,83,30.04,29.64,8,2,14,0.03
2014-10-19,53.9,42.2,29.4,43.0,36.6,28.0,98,82,60,30.11,29.84,6,1,10,0.04
2014-10-20,58.3,50.3,45.8,52.0,47.1,43.0,97,88,77,29.84,29.67,5,1,11,0.18
2014-10-21,49.9,45.5,34.9,46.0,41.7,34.0,95,87,75,30.13,29.81,7,1,10,0.00
2014-10-22,49.9,40.3,30.1,42.0,36.7,29.0,98,87,73,30.25,30.13,6,1,9,0.00
2014-10-23,58.4,42.3,29.6,47.0,37.8,29.0,99,86,59,30.18,29.97,6,1,8,0.01
2014-10-24,64.4,52.1,40.6,53.0,46.6,39.0,97,82,65,29.98,29.82,4,0,7,0.00
2014-10-25,67.7,56.8,44.0,56.0,46.8,38.0,99,73,36,29.82,29.71,10,2,14,0.00
2014-10-26,62.2,49.0,34.7,43.0,36.8,33.0,97,66,38,29.87,29.77,8,1,11,0.00
2014-10-27,74.2,60.4,40.7,62.0,48.8,37.0,92,67,55,29.81,29.50,11,3,17,0.00
2014-10-28,67.6,57.9,47.3,59.0,48.6,38.0,96,73,47,29.79,29.53,9,2,15,0.21
2014-10-29,46.8,42.7,40.9,41.0,38.8,36.0,94,86,74,29.99,29.79,7,1,12,0.03
2014-10-30,51.2,45.1,41.9,40.0,38.2,36.0,92,78,58,30.02,29.89,4,1,9,0.03
2014-10-31,44.7,38.5,31.8,41.0,35.2,25.0,96,88,75,30.12,29.80,12,3,24,0.08
2014-11-1,40.7,32.0,25.1,25.0,22.9,20.0,92,70,45,30.30,30.12,9,3,15,0.08
2014-11-2,51.0,35.6,21.0,34.0,25.7,20.0,97,71,37,30.34,30.14,6,2,12,0.00
2014-11-3,61.0,51.8,41.6,42.0,33.8,26.0,57,51,43,30.14,29.87,11,3,15,0.00
2014-11-4,56.0,49.5,39.5,50.0,42.4,34.0,98,79,45,29.94,29.76,7,2,18,0.14
2014-11-5,59.2,47.2,36.5,44.0,39.4,35.0,97,76,46,30.03,29.81,6,2,10,0.14
2014-11-6,48.6,42.9,35.5,45.0,39.2,30.0,97,87,63,29.99,29.61,11,3,18,0.06
2014-11-7,40.8,37.2,33.3,36.0,32.8,29.0,93,84,76,30.04,29.78,6,1,9,0.06
2014-11-8,42.8,39.5,37.4,40.0,34.7,31.0,95,83,75,29.81,29.61,8,2,15,0.01
2014-11-9,43.7,38.6,31.7,36.0,31.8,30.0,94,77,63,29.81,29.67,9,2,19,0.00
2014-11-10,56.4,48.6,40.1,45.0,38.8,35.0,85,70,56,29.75,29.52,11,4,19,0.00
2014-11-11,53.9,45.5,33.6,47.0,39.3,29.0,95,80,62,29.88,29.50,9,3,15,0.22
2014-11-12,33.7,30.6,27.4,28.0,24.2,22.0,81,77,72,30.14,29.89,9,3,16,0.22
2014-11-13,33.5,27.0,22.5,27.0,22.9,21.0,94,84,69,30.14,30.10,10,2,14,0.01
2014-11-14,31.5,26.6,22.9,26.0,23.0,20.0,94,86,76,30.25,30.12,6,1,11,0.04
2014-11-15,31.3,24.7,17.3,21.0,18.3,15.0,90,77,59,30.29,30.12,6,1,11,0.00
2014-11-16,29.9,28.1,24.8,27.0,24.3,19.0,92,86,73,30.12,29.77,7,2,9,0.00
2014-11-17,29.1,21.0,11.7,27.0,17.6,10.0,92,86,77,29.78,29.64,13,3,14,0.00
2014-11-18,15.8,13.0,10.4,13.0,10.3,8.0,91,89,82,30.05,29.78,9,3,12,0.00
2014-11-19,30.0,21.6,13.9,24.0,17.0,9.0,91,82,79,30.03,29.62,12,4,16,0.00
2014-11-20,27.4,23.3,20.2,19.0,14.9,10.0,84,71,56,30.12,29.84,15,4,18,0.03
2014-11-21,29.3,21.9,7.4,17.0,13.9,5.0,92,72,57,30.39,30.13,8,2,13,0.03
2014-11-22,48.7,38.3,25.6,45.0,35.2,16.0,97,89,62,30.18,29.80,10,3,14,0.10
2014-11-23,53.2,48.9,45.9,49.0,46.7,44.0,99,92,82,29.80,28.99,12,4,14,1.38
2014-11-24,51.6,40.8,28.2,51.0,39.7,25.0,99,95,86,29.65,28.93,19,5,25,0.02
2014-11-25,28.2,26.4,25.1,26.0,22.8,20.0,91,86,81,30.11,29.65,10,2,17,0.02
2014-11-26,27.1,25.7,23.7,23.0,21.4,20.0,86,83,80,30.11,30.00,7,2,11,0.00
2014-11-27,31.9,26.6,21.1,30.0,24.2,19.0,94,90,85,30.26,30.04,8,1,16,0.03
2014-11-28,30.1,23.1,15.2,24.0,19.1,13.0,94,84,77,30.26,29.89,8,3,13,0.03
2014-11-29,50.8,39.5,28.8,48.0,34.5,24.0,91,82,74,29.89,29.56,12,4,18,0.01
2014-11-30,56.9,47.4,34.4,53.0,45.5,32.0,98,93,85,30.04,29.56,10,3,14,0.00
2014-12-1,34.1,25.1,17.7,32.0,19.0,13.0,91,78,66,30.52,30.04,8,3,16,0.00
2014-12-2,32.8,25.0,18.6,29.0,21.1,13.0,95,83,73,30.47,29.96,10,3,15,0.00
2014-12-3,37.3,30.1,21.6,29.0,24.8,19.0,96,81,60,30.23,29.95,7,2,18,0.00
2014-12-4,31.9,27.0,20.1,25.0,21.6,18.0,94,81,67,30.34,30.20,7,2,11,0.00
2014-12-5,35.0,32.6,30.8,33.0,29.4,25.0,96,88,79,30.21,30.06,8,2,10,0.01
2014-12-6,38.9,33.6,27.4,33.0,29.1,21.0,93,84,65,30.53,30.09,9,3,12,0.02
2014-12-7,35.0,29.4,23.3,27.0,22.3,17.0,86,75,60,30.57,30.25,11,5,17,0.00
2014-12-8,38.2,32.9,29.6,34.0,29.9,26.0,97,88,80,30.25,29.92,9,4,14,0.12
2014-12-9,36.9,34.8,31.9,35.0,32.9,28.0,98,93,84,30.20,29.92,10,2,11,0.13
2014-12-10,33.3,29.7,25.3,28.0,25.4,21.0,89,84,75,30.22,30.09,7,3,11,0.00
2014-12-11,32.7,27.2,22.2,27.0,23.9,19.0,95,87,78,30.13,30.05,11,4,17,0.00
2014-12-12,32.5,29.7,25.1,32.0,28.7,24.0,99,96,93,30.18,30.07,8,3,17,0.00
2014-12-13,44.7,38.4,32.4,43.0,37.6,32.0,99,97,92,30.14,29.96,12,4,14,0.00
2014-12-14,53.3,47.2,44.6,48.0,44.8,43.0,96,91,80,29.99,29.91,7,3,10,0.00
2014-12-15,49.9,44.5,42.2,44.0,42.1,40.0,98,92,77,29.93,29.60,11,5,17,0.09
2014-12-16,43.3,40.8,32.3,43.0,40.4,31.0,99,98,95,29.91,29.52,19,4,20,0.03
2014-12-17,32.4,28.0,26.9,31.0,24.1,22.0,94,85,80,30.14,29.91,16,6,23,0.03
2014-12-18,27.2,26.8,26.2,25.0,24.0,22.0,94,89,82,30.17,30.10,9,3,11,0.00
2014-12-19,34.0,27.5,21.3,25.0,22.6,19.0,96,83,58,30.22,30.11,8,2,10,0.00
2014-12-20,29.3,24.8,18.6,28.0,23.6,17.0,96,94,91,30.20,30.15,2,0,3,0.00
2014-12-21,34.9,30.4,28.2,29.0,27.7,26.0,96,90,79,30.18,30.00,9,3,11,0.00
2014-12-22,36.9,31.1,25.1,36.0,29.1,23.0,96,92,87,30.00,29.62,10,5,16,0.16
2014-12-23,51.3,43.5,37.1,48.0,40.7,36.0,99,90,69,29.66,29.54,10,4,16,0.03
2014-12-24,40.6,37.2,32.7,39.0,36.5,32.0,98,97,94,29.60,29.26,8,3,18,0.40
2014-12-25,37.2,35.1,33.7,35.0,32.3,30.0,98,89,82,29.96,29.45,13,6,20,0.45
2014-12-26,49.7,40.7,33.3,42.0,37.0,32.0,94,86,73,29.99,29.91,10,4,12,0.00
2014-12-27,47.4,41.7,33.6,46.0,40.0,31.0,99,94,87,29.96,29.80,13,5,21,0.01
2014-12-28,34.4,30.8,22.7,31.0,25.8,20.0,90,81,69,30.11,29.91,9,3,14,0.01
2014-12-29,32.4,26.5,20.6,25.0,20.2,15.0,94,79,51,30.35,30.11,7,2,10,0.00
2014-12-30,24.0,19.0,14.7,18.0,13.0,9.0,87,77,65,30.49,30.35,13,3,15,0.00
2014-12-31,18.3,15.6,10.1,10.0,6.6,1.0,79,67,48,30.44,30.04,14,7,25,0.00
2015-1-1,29.0,21.6,14.1,19.0,12.2,7.0,78,68,57,30.04,29.87,15,8,25,0.00
2015-1-2,33.9,28.2,23.9,25.0,22.0,19.0,85,78,66,30.23,30.01,7,2,11,0.00